Vertical_Velocity
2 2 1 1 0 1 1 -0 0 -2 -2 -4 -4 -3 -5 -3 -4 -2 -0 -0 -4 -5
2 1 1 1 -1 -2 -3 -1 -0 -1 -2 -5 -4 -4 -2 -3 -4 -5 1 -2 -1 -4
-1 -2 -2 -2 1 -0 -1 -2 -6 -6 -4 -3 -0 -3 -3 5 -1 -2 3 1 1 -1
1 1 1 -1 -3 -5 -7 -6 -2 -1 -2 -1 -2 1 -0 -1 3 2 2 1 -1 1
0 -1 -3 -6 -5 -1 -2 -1 1 3 -0 -0 -1 0 3 0 2 2 -1 -1 -0 2
-3 -2 1 2 2 2 2 3 5 -0 3 2 0 2 -2 3 -0 -1 -2 -2 -2 -1
2 1 -1 -1 -1 -1 2 1 -0 1 3 4 5 -0 0 -1 0 -2 0 -2 -2 -2
-2 -4 -4 -4 -1 -1 -4 -2 -3 -1 -1 -2 20 -3 1 2 -1 0 -0 0 1 -0
-2 -3 -3 -2 -4 -4 -2 -1 -2 -2 -2 3 -2 -2 4 -1 -1 1 -0 -1 2 1
-4 -1 -3 -4 -1 -0 -2 -2 -3 -3 -2 -1 -1 1 0 -1 -1 -2 -2 -0 -2 -1
-3 -3 -1 0 -1 0 -0 -2 -2 -2 -1 1 -0 -2 -1 -2 -2 -1 1 -0 -2 -4
-4 -2 -1 -1 -2 -0 -0 -3 1 -2 -0 -1 -2 -2 -3 -1 1 2 1 -2 -2 -5
-3 -2 -2 -4 0 1 -0 -1 1 0 -2 -1 -0 -2 -1 -2 1 -2 -1 1 -1 -3
-2 -3 -0 -2 -2 1 0 -1 -0 -1 -1 -1 -1 -1 -1 -1 -1 -2 -2 -4 -2 0
Height
3111 3106 3100 3095 3090 3083 3078 3073 3067 3061 3055 3050 3045 3040 3034 3029 3025 3022 3018 3013 3010 3006
3103 3098 3093 3087 3082 3076 3069 3064 3057 3052 3046 3040 3034 3029 3024 3020 3016 3012 3008 3004 3000 2996
3096 3091 3085 3078 3072 3066 3060 3054 3047 3041 3035 3029 3023 3019 3015 3011 3007 3003 3000 2995 2990 2987
3088 3080 3073 3066 3061 3055 3048 3042 3036 3030 3024 3019 3015 3010 3006 3002 2998 2995 2991 2987 2982 2978
3078 3071 3064 3057 3050 3044 3038 3032 3026 3021 3015 3010 3006 3001 2998 2995 2992 2988 2984 2979 2974 2971
3068 3061 3055 3049 3043 3036 3029 3023 3018 3012 3008 3002 2997 2994 2992 2989 2985 2981 2977 2972 2967 2964
3060 3054 3048 3041 3034 3027 3021 3014 3009 3004 2999 2995 2991 2988 2985 2982 2978 2974 2969 2965 2960 2955
3052 3045 3039 3032 3025 3018 3012 3006 3000 2995 2991 2986 2983 2982 2978 2975 2971 2966 2962 2957 2952 2946
3044 3036 3028 3021 3015 3009 3002 2997 2992 2988 2985 2982 2978 2975 2972 2969 2964 2959 2954 2948 2944 2938
3034 3027 3020 3013 3007 3001 2996 2991 2986 2983 2980 2975 2972 2969 2966 2961 2957 2952 2946 2941 2934 2929
3026 3019 3013 3006 3000 2994 2989 2986 2982 2978 2974 2971 2967 2963 2959 2956 2951 2946 2940 2934 2927 2921
3019 3012 3006 2999 2993 2988 2983 2979 2976 2972 2968 2965 2961 2957 2953 2949 2945 2939 2934 2928 2921 2915
3012 3005 2998 2991 2986 2981 2976 2972 2968 2965 2962 2958 2955 2952 2948 2943 2938 2933 2928 2922 2916 2909
3004 2997 2989 2983 2978 2974 2969 2965 2962 2959 2956 2954 2951 2947 2943 2938 2932 2927 2922 2916 2910 2904